Simultaneous Nadir Overpasses (SNOs) Predictions

Prediction of SNOs between GOES-17 and METOP-B Satellite Orbit:

Table of predicted SNOs for the next 14.0 days since TLE Epoch: 6/16/2022
Index Date Time (GOES-17) GOES-17 Lat,Lon METOP-B Lat,Lon Distance(km) Time Diff (sec)
1 06/16/2022 06:37:53 -0.05,-137.19 -0.07,-137.27 9.35 80
2 06/18/2022 18:38:46 0.04,-137.19 -0.04,-136.84 39.48 80
3 06/20/2022 06:55:06 -0.03,-137.17 -1.01,-141.43 486.02 80
4 06/21/2022 06:37:08 -0.03,-137.17 0.15,-136.45 82.59 80
5 06/22/2022 18:53:19 0.03,-137.17 0.88,-141.01 437.54 80
6 06/23/2022 18:35:20 0.03,-137.16 -0.22,-136.01 130.88 80
7 06/25/2022 06:51:40 -0.03,-137.14 -0.82,-140.61 395.15 80
8 06/26/2022 06:33:40 -0.03,-137.13 0.28,-135.61 172.78 80
9 06/27/2022 18:49:53 0.03,-137.12 0.69,-140.18 348.70 80
10 06/28/2022 18:31:53 0.03,-137.10 -0.42,-135.19 218.78 80
